CAPE
28 20 25 28 26 25 19 21 32 36 24 21 14 5 1 0 0 4 20 11 0 0 0 0 0 2 0 0 0 0 0 0 0 0 0 0 0 0 0 0 0 0 0 0 0 0 0
29 21 36 32 27 26 14 20 37 31 30 21 20 21 9 0 0 0 1 0 0 1 0 0 0 0 0 0 0 0 0 0 0 0 0 0 0 0 0 0 0 0 0 0 0 0 0
37 27 56 57 55 30 27 30 33 33 39 39 33 30 26 9 0 0 0 0 1 1 0 1 6 2 0 0 0 0 0 0 0 0 0 0 0 0 0 0 0 0 0 0 0 0 0
29 53 43 56 58 53 46 44 33 29 25 22 21 38 38 36 24 17 17 0 0 0 0 0 4 2 0 0 0 0 0 0 0 0 0 0 0 0 0 0 0 0 0 0 0 0 0
20 53 49 52 64 54 66 54 50 26 24 31 25 44 38 36 30 24 14 0 0 0 0 0 4 1 0 0 0 0 0 0 0 0 0 0 0 0 0 0 0 0 0 0 0 0 0
44 42 18 38 60 55 49 45 64 60 45 36 39 42 48 45 28 13 2 0 0 0 1 1 0 1 0 0 0 0 0 0 0 0 0 0 0 0 0 0 0 0 0 0 0 0 0
26 35 43 50 48 58 29 34 71 63 56 44 26 45 60 46 24 14 0 0 0 0 0 0 0 0 0 0 0 0 0 0 0 0 0 0 0 0 0 0 0 0 0 0 0 0 0
39 54 62 39 36 44 40 34 59 52 44 25 26 41 55 62 26 4 1 0 3 6 3 0 0 0 0 0 0 0 0 0 0 0 0 0 0 0 0 0 0 0 0 0 0 0 0
36 44 21 28 26 55 38 28 63 61 33 34 38 40 58 61 29 4 0 0 7 9 9 0 0 0 0 0 0 0 0 0 0 0 0 0 0 0 0 0 0 0 0 0 0 0 0
48 34 56 55 54 50 57 57 57 63 58 55 53 39 51 47 6 4 4 0 1 3 10 0 0 0 0 0 0 0 0 0 0 0 0 0 0 0 0 0 0 0 0 0 0 0 0
62 46 40 31 40 52 46 59 34 46 43 43 47 31 54 47 61 12 23 1 0 25 0 0 0 0 0 0 0 0 0 0 0 0 0 0 0 0 0 0 0 0 0 0 0 0 0
69 37 30 17 37 44 43 54 58 49 37 34 33 21 47 48 60 12 41 44 18 18 0 0 0 0 0 0 0 0 0 0 0 0 0 0 0 0 0 0 0 0 0 0 0 0 0
51 40 50 30 27 45 46 36 36 36 36 28 41 31 52 82 36 54 80 67 45 6 0 0 0 0 0 0 0 0 0 0 0 0 0 0 0 0 0 0 0 0 0 0 0 0 0
44 44 31 24 52 55 48 59 51 42 56 41 48 52 46 70 82 39 96 76 20 0 0 0 0 0 0 0 0 0 0 0 0 0 0 0 0 0 0 0 0 0 0 0 0 10 3
47 41 43 29 33 50 50 44 33 40 50 44 69 32 34 50 94 156 31 71 0 1 0 0 0 0 0 0 0 0 0 0 0 0 0 0 0 0 0 0 0 0 0 0 0 0 0
59 51 69 51 70 61 63 52 36 28 40 79 50 50 18 63 208 105 47 7 25 9 0 0 0 0 0 0 0 0 0 0 0 0 0 0 0 0 0 0 0 0 0 0 0 0 0
38 46 59 59 50 63 40 37 16 14 36 63 68 49 16 127 281 76 26 38 23 7 0 2 0 0 0 0 0 0 0 0 0 0 6 0 0 0 0 0 0 0 0 0 0 1 1
57 56 40 38 34 45 23 23 37 47 79 69 59 64 50 335 39 10 52 11 1 12 0 0 0 1 0 0 0 0 0 0 0 0 2 18 42 0 0 0 0 0 0 0 1 0 8
54 51 43 46 56 70 84 58 62 74 87 111 59 23 112 264 109 26 46 65 31 21 11 3 0 0 2 3 2 0 0 0 0 0 0 0 29 50 4 0 0 0 0 0 1 15 8
70 73 68 59 64 80 96 95 89 100 135 207 67 92 95 147 77 127 55 21 101 13 5 2 30 17 17 20 12 4 0 0 1 0 0 0 0 2 39 26 17 4 0 1 8 17 0
79 81 77 74 71 66 76 87 99 106 136 164 41 45 37 65 28 18 99 47 47 47 3 14 11 18 24 21 19 26 11 1 1 5 10 12 5 0 0 0 0 0 0 0 0 0 33
83 70 68 64 50 44 45 56 79 69 116 58 1 52 71 40 41 46 51 40 67 37 47 25 16 3 17 37 23 11 9 19 11 5 3 4 36 23 10 0 0 5 0 0 1 0 8
58 62 63 50 55 54 47 54 64 56 68 23 13 24 131 29 94 116 73 94 76 70 29 29 20 18 17 16 8 20 18 17 19 16 18 9 14 6 8 37 29 3 42 59 20 2 0
71 68 79 79 86 53 68 38 17 41 53 38 26 37 65 54 96 57 40 63 45 26 39 27 15 18 9 0 12 18 20 11 17 11 19 11 18 41 26 29 10 0 0 43 31 25 3
81 95 80 80 78 75 68 63 62 49 26 32 28 55 61 86 67 92 65 57 81 102 43 13 21 5 7 15 57 20 23 11 0 0 2 12 18 41 20 66 24 0 0 18 98 71 68
78 89 90 91 74 67 75 70 74 66 38 25 31 40 99 171 120 56 103 51 84 67 91 24 3 7 12 43 91 30 24 11 7 8 0 5 23 81 39 55 17 3 0 6 8 238 174
51 71 76 66 63 62 58 65 67 75 85 42 10 24 43 43 22 48 62 92 82 62 55 31 34 17 21 49 70 45 20 0 2 7 2 20 33 41 21 40 47 49 51 22 146 105 135
40 55 60 65 70 53 50 48 57 76 84 57 23 11 7 19 26 33 38 41 62 90 58 63 45 10 7 101 72 41 14 5 0 0 88 19 29 30 20 65 23 1 18 49 33 196 160
25 32 40 45 55 60 56 69 41 71 83 86 51 51 16 12 16 9 2 28 68 75 74 77 10 14 40 51 61 49 57 48 2 17 0 1 83 58 77 42 6 0 14 22 23 23 5
CIN
0 -2 -3 -3 -1 -4 -2 -1 -2 -3 -4 -2 -3 -3 -1 0 0 0 0 0 0 0 0 0 0 0 0 0 0 0 0 0 0 0 0 0 0 0 0 0 0 0 0 0 0 0 0
-2 -2 -2 -1 -3 -4 -1 -1 -2 -5 -4 -2 -1 -2 -3 -1 0 0 0 0 0 0 0 0 0 0 0 0 0 0 0 0 0 0 0 0 0 0 0 0 0 0 0 0 0 0 0
-1 -1 -2 -2 -2 -4 -5 -6 -3 -5 -3 -3 -3 -2 0 0 0 0 0 0 0 0 0 0 0 0 0 0 0 0 0 0 0 0 0 0 0 0 0 0 0 0 0 0 0 0 0
0 0 0 -1 -2 -4 -3 -3 -6 -5 -5 -4 -3 0 0 0 -1 -1 0 0 0 0 0 0 0 0 0 0 0 0 0 0 0 0 0 0 0 0 0 0 0 0 0 0 0 0 0
-1 -1 -2 -1 -1 -3 -5 -3 -2 -5 -5 -2 -2 0 -1 -1 -1 -1 -1 0 0 0 0 0 0 0 0 0 0 0 0 0 0 0 0 0 0 0 0 0 0 0 0 0 0 0 0
0 0 -3 -1 0 -4 -2 -3 -4 -2 -3 -4 -1 0 0 0 -1 -2 -1 0 0 0 0 0 0 0 0 0 0 0 0 0 0 0 0 0 0 0 0 0 0 0 0 0 0 0 0
0 0 0 0 0 0 -3 -4 -1 -3 -2 -2 -1 0 0 0 0 -1 0 0 0 0 0 0 0 0 0 0 0 0 0 0 0 0 0 0 0 0 0 0 0 0 0 0 0 0 0
0 -1 -1 0 0 -1 0 -1 -2 -2 -2 -4 -2 0 0 0 0 -1 0 0 0 0 0 0 0 0 0 0 0 0 0 0 0 0 0 0 0 0 0 0 0 0 0 0 0 0 0
-1 -1 -2 -1 0 -1 -3 -4 -1 -2 -3 -6 -1 0 0 0 -2 -2 0 0 0 -1 0 0 0 0 0 0 0 0 0 0 0 0 0 0 0 0 0 0 0 0 0 0 0 0 0
0 -1 -2 0 -2 -3 -1 -6 -4 -1 -1 -2 0 0 0 -1 -8 0 0 0 0 -4 0 0 0 0 0 0 0 0 0 0 0 0 0 0 0 0 0 0 0 0 0 0 0 0 0
0 0 0 0 0 -3 -2 -3 -8 -9 -3 -3 0 0 0 -3 0 0 -1 -17 0 0 0 0 0 0 0 0 0 0 0 0 0 0 0 0 0 0 0 0 0 0 0 0 0 0 0
0 0 0 0 0 -1 -2 -3 -4 -6 -4 -3 0 0 0 0 0 -1 -1 0 -7 -1 0 0 0 0 0 0 0 0 0 0 0 0 0 0 0 0 0 0 0 0 0 0 0 0 0
0 0 0 0 0 -1 -1 -3 -4 -5 -4 -3 0 0 0 0 0 0 -1 0 0 0 0 0 0 0 0 0 0 0 0 0 0 0 0 0 0 0 0 0 0 0 0 0 0 0 0
0 0 0 -1 -1 -2 -3 -4 -5 -8 -3 -2 0 0 0 0 0 -18 -1 0 0 0 0 0 0 0 0 0 0 0 0 0 0 0 0 0 0 0 0 0 0 0 0 0 0 0 0
0 0 0 0 0 -1 -1 -5 -3 -5 -2 -2 0 0 0 -1 0 -1 -3 0 0 0 0 0 0 0 0 0 0 0 0 0 0 0 0 0 0 0 0 0 0 0 0 0 0 0 0
0 0 0 0 0 -1 -1 -3 -3 -4 -2 -1 0 0 -8 -5 0 0 -4 -2 0 -2 0 0 0 0 0 0 0 0 0 0 0 0 0 0 0 0 0 0 0 0 0 0 0 0 0
0 0 0 0 -2 -1 -4 -2 -3 -6 -1 0 0 0 -22 -3 0 -1 -6 0 0 -1 0 -23 0 0 0 0 0 0 0 0 0 0 -4 0 0 0 0 0 0 0 0 0 0 0 0
0 0 0 0 0 -1 -5 -1 0 0 0 0 0 0 -3 0 0 -2 0 0 -1 0 0 0 -2 -6 0 0 0 0 0 0 0 0 -12 -5 -1 0 0 0 0 0 0 0 0 0 0
0 0 0 0 0 0 0 0 0 0 0 0 0 -1 0 0 0 0 0 0 0 0 -1 0 0 0 0 0 0 0 0 0 0 0 0 0 0 0 0 0 0 0 0 0 0 0 0
0 0 0 0 0 0 0 0 0 -1 -2 0 0 0 0 0 0 0 0 -3 0 0 0 -2 0 0 0 0 0 0 0 0 -3 0 0 0 0 -2 -3 -27 -12 -1 0 0 0 0 0
0 0 0 0 0 0 0 0 0 0 0 0 0 0 0 0 0 0 0 0 0 0 -1 0 0 0 0 0 0 0 0 0 0 0 -4 0 0 0 0 0 0 0 0 0 0 0 0
0 0 0 0 0 0 0 0 0 0 0 0 -3 -2 -1 0 0 0 0 0 0 0 0 0 0 0 0 0 0 0 -1 0 0 -1 -7 0 0 0 0 -1 -1 -11 0 -1 0 0 0
0 0 0 0 -1 -1 -1 0 0 0 0 0 0 0 0 -8 -1 0 0 0 0 0 -1 0 0 0 0 0 0 0 0 0 0 0 0 0 0 0 0 -1 -1 0 -8 -12 -4 -2 0
0 0 0 0 0 0 0 -1 -5 0 0 -1 0 0 0 0 0 -1 0 0 0 0 -2 -3 0 0 -2 0 0 0 0 0 0 0 0 0 0 0 -1 -2 0 0 -5 -2 -16 0 -6
0 0 0 0 0 0 0 0 0 -1 -2 0 -1 -1 0 0 -1 0 -1 0 0 0 -1 -4 0 -1 -1 0 0 0 0 0 0 0 0 0 0 0 0 0 -1 0 0 -4 0 -1 -1
0 0 0 0 0 0 0 -2 -2 -1 0 -1 0 -1 0 0 0 0 0 0 0 0 0 0 0 -3 0 0 0 0 0 0 0 0 0 0 0 0 0 0 0 -24 0 -12 -1 0 -6
0 0 0 0 0 0 0 -1 -1 -2 0 0 0 -1 0 -1 -1 0 0 0 0 -1 -1 -1 0 -1 0 0 0 0 0 0 0 0 0 0 0 0 -1 -1 0 -4 -22 -9 0 -2 -11
0 0 0 0 0 0 0 0 0 0 -1 0 0 -1 0 -1 0 0 0 0 0 0 0 0 0 0 0 0 0 0 0 0 0 0 0 0 0 0 0 0 0 -11 -9 -17 -2 -5 -1
-1 -1 0 0 0 0 0 -1 0 0 0 0 0 0 0 0 0 -2 -2 -22 0 0 -3 0 -3 -1 0 0 0 0 0 -1 0 0 0 -1 0 0 0 0 -7 0 -9 -12 -40 -35 -3
Wind_Speed
13 10 10 9 10 9 10 12 10 8 8 9 10 11 13 14 15 16 15 13 14 15 15 16 17 15 12 7 12 5 2 2 7 11 10 13 13 14 16 12 15 19 18 14 15 15 15
11 11 12 10 11 12 11 11 10 8 9 10 11 10 12 14 16 16 16 16 15 14 17 16 14 13 8 14 1 4 2 2 7 11 12 11 6 11 12 15 15 7 13 17 15 15 14
14 12 12 10 10 10 9 8 9 8 9 10 11 11 12 16 16 16 17 17 17 16 19 17 14 10 11 22 3 4 3 3 2 8 9 7 7 9 4 13 14 12 17 18 18 19 18
15 14 14 11 9 7 9 10 8 10 10 12 13 12 13 14 15 15 16 18 18 20 20 17 9 9 12 10 10 14 13 14 13 14 8 5 5 11 15 8 9 11 14 17 4 6 5
16 14 12 11 11 9 7 9 9 8 11 12 12 12 13 14 14 14 16 19 22 18 11 3 8 9 12 0 8 9 14 9 8 11 10 8 7 12 12 17 18 15 15 17 13 12 10
13 14 13 15 14 10 9 11 10 10 10 11 13 13 13 12 13 12 14 22 17 4 4 5 1 6 10 4 3 3 7 8 4 11 8 14 11 12 14 15 20 17 18 15 16 3 11
19 17 15 16 15 14 11 11 11 10 11 11 13 14 12 12 13 11 13 10 5 7 7 9 4 8 9 8 7 7 6 10 9 10 10 20 16 19 21 23 19 15 15 18 16 3 8
17 13 15 14 16 14 11 10 11 9 12 12 14 14 12 13 13 7 7 6 4 5 14 16 24 25 24 12 9 9 6 10 10 12 13 12 20 21 19 18 17 20 19 20 18 5 10
15 17 17 18 18 18 12 11 11 10 10 12 14 13 13 12 13 7 4 4 3 11 8 11 11 11 10 16 12 15 7 9 12 16 18 17 6 19 19 18 19 20 21 20 17 11 14
15 15 18 17 18 16 13 10 10 11 10 11 12 13 12 13 9 3 1 3 4 3 6 6 7 6 7 6 8 13 12 9 12 16 16 14 19 10 21 24 19 20 19 18 18 16 13
17 16 16 15 14 13 13 13 10 9 9 11 11 13 12 9 9 4 5 5 7 4 8 5 6 4 6 7 4 3 8 13 16 10 8 8 8 19 18 19 19 18 14 14 14 15 15
18 17 17 17 15 14 13 12 10 10 7 10 11 13 12 7 6 7 7 6 4 5 10 3 5 5 5 7 2 7 4 7 5 18 16 13 2 6 19 18 15 6 11 10 7 9 11
18 18 17 17 16 13 12 10 6 6 8 11 11 11 10 7 3 3 4 4 7 9 4 5 2 3 4 3 6 8 8 10 8 7 14 19 22 12 7 7 13 16 11 6 9 8 9
19 20 18 16 16 13 10 10 7 8 10 10 10 10 8 8 5 3 3 7 12 1 5 2 2 6 2 1 3 5 8 7 10 7 5 9 9 25 16 22 11 18 18 7 9 9 7
21 21 20 18 14 15 13 8 9 9 9 8 9 7 6 9 10 7 4 12 6 10 3 4 4 5 4 2 3 3 2 3 5 7 6 4 6 4 11 21 23 15 20 16 16 13 8
21 22 20 18 17 15 13 10 9 9 10 8 5 6 11 10 10 5 6 13 14 3 5 3 5 3 2 3 1 2 2 6 3 6 6 2 6 6 8 11 19 20 6 10 11 7 11
21 21 22 20 16 13 11 13 13 13 13 9 5 4 5 11 9 6 6 8 18 11 4 6 3 2 2 2 3 3 3 5 6 7 6 4 5 4 6 9 15 12 14 13 10 14 11
23 19 19 19 19 19 18 18 16 15 14 8 4 5 3 10 8 3 7 12 3 8 14 8 5 4 4 3 5 4 3 3 6 6 4 4 5 8 13 3 1 9 18 20 13 12 10
22 21 22 22 21 20 20 21 20 18 17 5 4 5 5 10 9 12 6 5 21 14 7 9 8 8 5 5 5 6 6 3 5 5 6 5 2 6 8 11 15 11 11 14 18 18 20
23 22 23 23 24 23 22 22 21 21 20 9 3 5 8 7 8 16 21 16 6 16 15 11 3 7 8 9 9 5 5 3 3 9 1 4 6 6 8 8 10 9 14 15 17 17 15
25 25 25 25 25 25 24 24 24 24 23 10 6 7 9 7 13 17 19 10 17 7 14 10 8 12 11 10 9 12 12 12 10 10 10 7 12 12 14 17 17 18 18 18 23 23 22
25 24 23 22 21 23 24 25 25 26 25 12 6 4 11 15 19 19 17 20 21 22 14 14 16 13 16 15 13 10 9 12 8 3 4 3 4 6 11 15 16 17 22 23 25 24 23
25 22 20 19 18 18 19 22 24 24 25 8 7 6 3 13 17 9 16 19 23 18 15 19 16 15 13 14 10 11 13 13 13 11 7 5 3 3 6 3 11 18 11 20 25 24 23
21 20 19 18 18 18 17 18 17 18 26 6 4 5 7 10 13 17 20 23 23 24 23 14 17 15 2 8 8 14 14 14 15 16 13 9 10 4 6 10 14 6 18 27 23 21 21
18 18 19 19 19 18 18 18 19 21 18 8 4 6 7 13 11 21 19 18 15 16 21 16 16 9 8 2 5 7 7 9 14 22 20 18 12 5 6 11 9 2 6 12 16 12 15
20 20 21 20 20 20 20 21 21 21 22 6 4 5 5 12 18 17 15 19 14 13 7 14 3 12 7 3 4 5 5 3 4 5 15 19 16 10 6 8 4 3 4 5 19 5 8
22 22 22 23 23 23 22 22 22 22 23 11 4 7 6 3 12 20 17 14 13 12 6 5 8 5 10 5 6 5 5 3 5 4 6 14 12 15 12 6 6 5 8 6 5 2 15
24 24 24 23 23 24 24 24 24 24 24 14 5 8 2 3 8 13 21 21 15 14 9 7 6 4 3 8 7 5 5 8 7 8 5 7 10 9 10 6 8 13 2 6 1 15 8
25 26 25 25 25 24 24 24 27 25 26 24 4 9 5 2 1 3 5 15 22 21 11 12 8 8 7 7 6 4 5 3 9 5 4 7 7 3 5 4 5 10 8 8 11 11 11
Wind_Direction
304 301 312 311 309 316 324 317 315 312 320 311 310 316 318 317 314 315 317 314 315 317 317 318 320 328 318 248 252 94 356 120 178 188 196 193 200 221 233 236 229 238 255 252 250 254 255
293 299 298 294 298 298 293 299 299 315 309 309 310 302 310 313 312 316 313 308 306 306 303 306 312 309 291 266 339 196 93 196 218 206 205 200 208 234 284 251 234 225 256 259 259 255 245
289 282 283 278 287 302 304 319 312 305 312 313 312 312 312 309 309 312 309 307 305 299 293 296 293 275 257 249 312 202 273 169 230 240 213 205 234 227 270 253 241 264 262 259 247 248 245
298 290 278 278 270 284 309 306 308 313 320 314 314 314 304 297 297 301 304 306 301 293 298 294 250 234 257 259 278 266 248 247 233 252 257 262 228 248 253 277 244 249 243 262 226 232 221
281 290 305 300 280 276 279 290 293 300 312 310 313 310 310 298 291 302 305 302 295 298 300 186 165 216 259 99 242 265 220 229 194 220 231 243 213 228 224 242 257 230 259 247 253 215 251
296 289 298 301 289 276 283 299 301 300 302 313 313 310 307 308 303 311 312 297 304 215 123 154 209 214 242 257 291 283 181 184 155 144 163 206 211 213 213 221 231 232 237 254 257 173 228
291 289 283 278 295 289 281 287 295 309 315 309 315 311 305 310 315 327 321 316 246 191 211 254 239 273 276 332 261 230 181 181 141 182 184 198 209 214 214 223 245 268 271 257 265 82 271
276 283 285 281 285 282 278 295 297 296 307 318 324 313 314 311 317 324 295 322 52 6 295 263 252 258 264 280 293 243 188 214 194 203 203 179 226 222 234 236 239 242 252 258 272 249 252
279 287 280 280 279 274 271 281 285 303 302 316 313 309 311 315 316 270 319 311 351 339 280 281 238 253 240 217 235 242 226 223 222 216 197 217 203 221 215 218 227 234 244 253 269 270 257
291 293 283 279 277 266 267 252 267 283 287 297 305 312 317 319 274 346 335 93 21 328 283 205 214 219 187 200 218 227 223 232 215 230 208 236 256 237 216 228 223 242 235 254 267 267 269
287 291 285 288 290 279 265 261 265 267 283 293 303 312 312 307 310 262 42 25 344 234 278 119 143 107 155 214 326 176 207 229 233 170 195 193 212 216 224 223 227 246 270 249 259 261 265
282 281 286 287 291 285 257 263 254 262 278 292 300 306 312 276 239 252 283 309 271 224 240 156 144 179 201 203 231 130 137 238 224 245 250 261 307 224 234 238 234 205 231 241 246 254 246
290 292 289 286 283 272 262 264 267 275 282 287 290 295 292 289 282 330 244 196 214 242 87 165 175 205 311 175 177 187 170 184 187 176 222 233 239 246 251 226 208 223 226 215 219 209 247
285 286 285 286 277 258 249 251 261 277 274 276 287 295 274 258 272 244 217 219 223 248 237 329 277 271 234 339 146 176 164 193 216 246 277 202 208 217 220 230 213 213 214 232 243 246 264
278 279 279 278 271 270 263 263 258 267 274 276 293 275 253 245 216 196 214 214 222 226 272 286 270 232 140 153 292 197 132 110 55 224 255 238 235 279 225 213 220 205 223 240 276 277 267
277 274 274 273 266 261 265 246 253 272 277 266 271 263 251 230 202 184 211 234 231 274 311 264 255 345 129 22 276 359 126 47 27 9 283 311 267 229 229 231 230 245 230 205 220 239 240
276 276 276 272 271 266 261 255 257 254 251 253 250 243 251 193 180 210 224 224 223 245 329 332 320 300 42 24 349 343 42 109 17 22 50 313 251 142 170 195 214 210 231 232 274 225 258
277 269 268 265 263 262 259 254 246 237 236 230 233 226 197 152 198 231 233 223 231 216 244 247 319 317 290 311 295 292 271 358 13 7 349 22 293 253 249 132 315 264 226 225 234 230 236
273 272 271 267 261 253 247 245 240 232 220 208 222 236 196 205 223 223 253 227 223 215 210 201 231 236 242 255 256 253 267 40 36 25 17 346 103 256 219 234 237 239 240 247 251 263 258
274 269 263 259 255 249 242 236 229 224 220 209 221 227 214 211 243 253 231 225 215 212 230 221 231 227 227 230 230 246 251 271 328 303 196 270 248 241 283 335 325 297 300 277 237 237 252
271 265 260 256 252 247 243 234 226 219 214 196 206 213 222 203 224 225 243 245 217 174 230 215 219 231 233 246 238 235 248 274 282 311 264 238 261 261 255 268 285 286 281 272 261 242 243
270 266 261 256 256 249 240 237 227 217 211 212 201 194 207 240 233 214 221 226 231 220 198 213 232 224 232 243 252 284 289 283 282 245 351 323 265 289 273 260 260 284 281 274 257 262 263
273 268 263 256 250 248 241 235 225 218 207 205 190 206 243 214 222 220 214 218 219 215 228 233 227 237 240 256 273 280 278 279 270 268 244 269 268 303 270 252 305 269 315 308 256 240 249
268 263 260 250 243 242 237 219 211 220 205 200 175 143 203 238 221 224 229 218 230 231 222 216 226 229 9 55 284 257 248 254 246 241 237 242 245 226 286 290 249 358 354 296 272 241 243
268 257 254 248 244 242 237 229 221 206 208 205 182 188 191 227 222 234 215 225 229 213 229 219 218 218 140 120 263 247 211 230 237 234 223 217 232 247 247 244 289 346 336 314 328 276 245
265 259 252 244 243 238 232 226 218 212 199 194 195 191 214 211 216 220 218 212 212 207 213 221 170 139 141 183 226 234 218 265 217 204 211 211 217 225 245 251 267 162 188 253 320 236 354
265 260 255 249 242 237 231 228 219 209 199 178 173 224 214 206 229 207 220 214 207 197 198 161 166 182 178 175 231 235 237 293 254 257 160 185 199 223 234 266 279 26 355 218 263 39 318
264 260 255 250 246 240 230 225 218 208 198 183 171 189 184 186 225 223 219 223 209 201 186 156 146 164 173 203 206 183 233 225 256 259 147 175 194 196 225 239 238 12 44 5 4 286 0
265 261 253 247 242 237 231 227 209 204 197 185 174 164 168 284 17 314 302 267 216 200 187 170 201 147 176 212 209 211 209 228 242 253 195 202 214 205 243 220 62 27 304 16 343 335 347